This is the latest recevied weather packets stored in our database for station/object DO1YM-13. If no packets are shown the sender has not sent any weather packets the latest 10 day(s).
| Time | Temp. | Humidity | Pressure | Rain* | Wind** | Luminosity | Snow |
|---|---|---|---|---|---|---|---|
| 1787492147 | 19.44° C | 56% | 1016.3 hPa | 0 mm | - | 120 W/m² | - |
| 1787491847 | 19.44° C | 56% | 1016.3 hPa | 0 mm | - | 110 W/m² | - |
| 1787491547 | 18.89° C | 56% | 1015.9 hPa | 0 mm | - | 172 W/m² | - |
| 1787491249 | 18.89° C | 58% | 1016.3 hPa | 0 mm | - | 178 W/m² | - |
| 1787490947 | 18.33° C | 59% | 1016.3 hPa | 0 mm | - | 158 W/m² | - |
| 1787490648 | 18.33° C | 58% | 1016.3 hPa | 0 mm | - | 136 W/m² | - |
| 1787490347 | 18.89° C | 57% | 1016.3 hPa | 0 mm | - | 137 W/m² | - |
| 1787490048 | 18.33° C | 59% | 1016.3 hPa | 0 mm | - | 155 W/m² | - |
| 1787489747 | 17.78° C | 60% | 1016.3 hPa | 0 mm | - | 119 W/m² | - |
| 1787489448 | 17.78° C | 60% | 1016.6 hPa | 0 mm | - | 151 W/m² | - |
| 1787489148 | 17.78° C | 60% | 1016.6 hPa | 0 mm | - | 129 W/m² | - |
| 1787488847 | 17.22° C | 61% | 1016.6 hPa | 0 mm | - | 107 W/m² | - |
| 1787488547 | 17.22° C | 61% | 1016.6 hPa | 0 mm | - | 92 W/m² | - |
| 1787488248 | 17.22° C | 60% | 1016.3 hPa | 0 mm | - | 98 W/m² | - |
| 1787487948 | 17.78° C | 60% | 1016.6 hPa | 0 mm | - | 104 W/m² | - |
| 1787487647 | 17.78° C | 60% | 1016.3 hPa | 0 mm | - | 128 W/m² | - |
| 1787487347 | 17.78° C | 60% | 1016.3 hPa | 0 mm | - | 150 W/m² | - |
| 1787487047 | 17.22° C | 62% | 1016.3 hPa | 0 mm | - | 144 W/m² | - |
| 1787486750 | 17.22° C | 63% | 1016.3 hPa | 0 mm | - | 129 W/m² | - |
| 1787486448 | 16.67° C | 65% | 1016.6 hPa | 0 mm | - | 134 W/m² | - |
| 1787486147 | 16.67° C | 63% | 1016.6 hPa | 0 mm | - | 96 W/m² | - |
| 1787485848 | 17.22° C | 62% | 1016.3 hPa | 0 mm | - | 78 W/m² | - |
| 1787485548 | 17.78° C | 61% | 1016.3 hPa | 0 mm | - | 78 W/m² | - |
| 1787485248 | 17.78° C | 62% | 1016.3 hPa | 0 mm | - | 105 W/m² | - |
| 1787484947 | 17.22° C | 60% | 1016.3 hPa | 0 mm | - | 94 W/m² | - |
* Rain latest hour (hover to see other rain measurements)
** Current wind speed in m/s (hover to see current wind gust speed)